Погода Купино

Погода Купино : погода сейчас, прогноз погоды и архив. Всё, что Вы хотите узнать о погоде Купино!

Хотите узнать прогноз погоды Купино? Тогда Вам сюда: Погода Купино

Поиск расширенной информации на нашем сайте:

Другие новости

Новости СМИ2

Главная страница сайта

Новости сайта

03.07.2017

Напоминаем, что на нашем специализированном сайте Метеоцентр.Азия вы можете получить высокодетализированные автоматические прогнозы погоды по пунктам России, СНГ и мира в авиационном формате (включающие направление и скорость ветра, видимость, явления погоды, количество и форму облачности, нижнюю и верхнюю границу облачности).


Погода Купино - сегодня

Время (UTC), дата Ветер
(°,м/с) 
Видим.   Явления Облачность Т
(°С)
Тd
(°С)
f(%) Тe
(°С)
Pmin
(гПа)
dP
(гПа)
Po
(мм)
O2
(г/м3)
Тmin Tmax R s Состояние
почвы
06 15.06.18 230 (ЮЗ) 6{10}  20000 м    8/3 1000 м средняя, верхняя 
[Sc|Ac lent|Ci sp]
+22.7 +9.5 43 +23  1006.4  -0.7  745  275           
12 15.06.18 230 (ЮЗ) 5{12}  20000 м  в посл. час гроза{ливн. осадки}  8/8 600 м кучево-дожд. 
[Cb calv]
+24.8 +6.7 31 +25  1004.2  -1  743  273    +26.1  0.0     
15 15.06.18 250 (З) 2{12}  20000 м    5/5 600 м кучево-дожд. 
[Cb calv]
+18.5 +10.7 60 +21  1005.7  1.2  744  279           
18 15.06.18 230 (ЮЗ) 20000 м    3/3 600 м кучево-дожд., верхняя 
[Cb calv|Ci fib]
+17.9 +11.3 65 +21  1005.7  744  279           
21 15.06.18 260 (З) 20000 м    10/10 600 м кучево-дожд. 
[Cb calv]
+14 +11.7 86 +19  1005.9  744  283           
00 16.06.18 280 (З) 20000 м    10/8 600 м кучево-дожд., верхняя 
[Cb calv|Ci fib]
+14.4 +12.2 87 +19  1006.6  0.7  745  283  +12.9        влажная 
03 16.06.18 300 (СЗ) 10 км  слаб. ливневой дождь  10/10 600 м кучево-дожд. 
[Cb calv]
+13.1 +11.3 89 +17  1007.7  746  284           
06 16.06.18 250 (З) 20000 м  {ливн. осадки}  6/4 1000 м верхняя 
[Sc|Ci fib]
+19.7 +9.6 52 +22  1007.8  0.4  746  279           
09 16.06.18 220 (ЮЗ) 20000 м    10/10 600 м кучево-дожд. 
[Cb calv]
+17.9 +10.9 64 +20  1007.8  746  280           
12 16.06.18 100 (В) 2{14}  20000 м  {гроза, ливн. осадки}  10/10 600 м 
[Sc]
+17.1 +12.7 75 +23  1007.8  -0.1  746  280    +21.4     
15 16.06.18 070 (В) 20000 м    10/10 600 м кучево-дожд. 
[Cb calv]
+15.4 +12.6 83 +21  1008.2  0.3  746  282           
18 16.06.18 080 (В) 20000 м    10/10 600 м 
[Sc]
+14 +12.3 89 +19  1008  -0.3  746  283           
21 16.06.18 260 (З) 20000 м    10/10 600 м 
[Sc]
+13.8 +12.6 92 +19  1007.5  -0.4  745  283           
00 17.06.18 тихо ()   20000 м    8/3 1000 м верхняя 
[Sc|Ci fib]
+14.1 +11.9 87 +18  1006.7  -0.8  745  283  +11.2        влажная 
03 17.06.18 170 (Ю) 20000 м    10/8 1000 м верхняя 
[Cu med, cong|Ci fib]
+16.9 +11.7 71 +22  1006.4  -0.1  745  280           
06 17.06.18 160 (Ю) 20000 м    10/6 600 м верхняя 
[Cu Sc|Ci sp]
+19.5 +11.7 61 +24  1005.3  -1  744  278           
09 17.06.18 280 (З) 20000 м    10/8 1000 м верхняя 
[Cu Sc|Ci fib]
+21 +10.8 52 +23  1003.9  -1.4  743  276           
12 17.06.18 350 (С) 5{10}  20000 м  гроза без осадков  10/9 300 м кучево-дожд., верхняя 
[Cb calv|Ci ing]
+15.4 +12.3 82 +20  1003.5  -0.6  743  281    +21.8       
18 17.06.18 200 (Ю) 20000 м  {гроза, ливн. осадки}  10/10 600 м кучево-дожд. 
[Cb calv]
+12.3 +11 92 +17  1004.1  743  284           
21 17.06.18 190 (Ю) 20000 м    10/5 600 м средняя, верхняя 
[Sc diur, vesp|Ac cuf|Ci fib]
+10.5 +9.7 95 +13  1004.5  0.3  743  287           
00 18.06.18 300 (СЗ) 10 км  слаб. ливневой дождь  10/10 600 м кучево-дожд. 
[Cb calv]
+11.7 +10.8 94 +15  1003.8  -0.6  743  285  +9.6    12    влажная 
03 18.06.18 030 (СВ) 20000 м  слаб. ливневой дождь  10/10 600 м кучево-дожд. 
[Cb calv]
+13.2 +12.2 94 +18  1002.7  -1  742  283           
06 18.06.18 360 (С) 20000 м  {ливн. осадки}  10/9 600 м кучево-дожд., верхняя 
[Cb calv|Ci fib]
+16 +11.9 77 +21  1003  0.5  742  280           
09 18.06.18 300 (СЗ) 10 км  слаб. ливневой дождь  10/10 600 м кучево-дожд. 
[Cb calv]
+15.2 +11.3 78 +18  1003.4  0.3  742  281           
12 18.06.18 020 (С) 10 км  {ливн. осадки}  10/10 600 м кучево-дожд. 
[Cb calv]
+13.8 +11.2 84 +17  1001.9  -1.6  741  282    +17.1  12     
Время (UTC), дата Ветер
(°,м/с) 
Видим.   Явления Облачность Т
(°С)
Тd
(°С)
f(%) Тe
(°С)
Pmin
(гПа)
dP
(гПа)
Po
(мм)
O2
(г/м3)
Тmin Tmax R s Состояние
почвы

Для получения пояснительной информации подведите курсор к названию столбца.

ПОГОДА Купино - архив

Всё, что Вы хотите узнать о погоде Купино - удобно и подробно!

Выберите нужную дату (начиная с 1 января 2015* года) и нажмите кнопку "Найти".
Будут отображены архивные сводки погоды по пункту Купино, начиная с указанной даты.


Отображать данные в формате CSV (для использования в таблицах Excel)


Внимание! Наш архив погоды предназначен исключительно для личного некоммерческого использования в познавательных целях. Если Вам необходимы официальные справки о состоянии погоды (для производственных, юридических, коммерческих и т.п. целей), обращайтесь в органы Росгидромета.

*Примечание: данная дата относится к архиву по метеостанциям СССР (Россия, СНГ, Балтия).
Архив по метеостанциям Зарубежной Европы и Азии (кроме Китая) хранится 10 дней, по другим регионам земного шара (Китай, Африка, Америка, Австралия, Океания) - 1 день.

Купино - район местоположения метеостанции


Название, широта, долгота, высота метеостанции:
Купино 54.4°ш. 77.3°д. 115 м над ур. моря [Российская Федерация]

Дополнительная информация

В oтличие oт бoльшинства пoгoдных сайтoв мы публикуем пoдрoбную метеoинфoрмацию в детальнoм прoфессиoнальнoм фoрмате.

Характеристики температуры и влажнoсти вoздуха измеряются на высoте 2 м в тени вдали oт зданий и деревьев.
Скoрoсть ветра измеряется на высoте 10 м (на урoвне рoста челoвека скoрoсть ветра ниже в 1.5-2 раза). Если метеoстанция нахoдится в гoрoде или в лесу, тo скoрoсть ветра занижена на 2-4 м/с пo сравнению с oткрытым местoм. Скoрoсть ветра над акватoриями крупных рек и oзёр, а также на вершинах хoлмoв на 2-5 м/с выше, чем в oбычных услoвиях.
Атмoсфернoе давление в разных тoчках местнoсти мoжет значительнo oтличаться oт давления на метеoстанции, в зависимoсти oт услoвий рельефа (при пoдъёме на 10 м давление пoнижается примернo на 1 мм рт.ст.).